BEIDOU-3 M13

Last updated on Thu Nov 21 2024 00:02:31 GMT+0000 (Coordinated Universal Time)

1 43622U 18072A 24324.99451685 -.00000021 00000+0 00000+0 0 9999 2 43622 56.1234 81.6889 0004854 291.4837 68.4454 1.86231061 41964
UTC large
Height (km)
Speed (km/s)
/
Latitude / Longitude
Inclination (degrees)
Orbital Period (minutes)
Azimuth
Elevation
Range (km)
Doppler Factor

Next 0 passes for location: London (51.5072 / 0.1276)

Sorry there are no passes over London.